Location: Newark
(58.3833°N, 26.7167°E)
Time: 11:23:53
(UTC+00:00)

N. Korean satellite - Visible Passes

Search period start: 24 January 2020 00:00
Search period end: 03 February 2020 00:00
Orbit: 454 x 507 km, 97.2° (Epoch: 23 January)

Date Brightness Start Highest point End Pass type
(mag) Time Alt. Az. Time Alt. Az. Time Alt. Az.
24 Jan 9.8 03:00:12 10° NE 03:02:14 14° E 03:04:15 10° ESE visible
24 Jan 6.4 04:32:34 10° NNE 04:36:06 79° WNW 04:39:41 10° SSW visible
24 Jan 7.5 15:16:28 10° S 15:19:49 50° W 15:23:12 10° NNW visible
25 Jan 7.1 04:07:04 10° NNE 04:10:35 58° ESE 04:14:07 10° S visible
25 Jan 7.8 05:41:00 10° N 05:43:41 21° WNW 05:46:25 10° WSW visible
25 Jan 9.9 16:26:44 10° WSW 16:28:14 12° W 16:29:44 10° WNW visible
26 Jan 8.3 03:41:41 10° NNE 03:44:58 33° E 03:48:16 10° SSE visible
26 Jan 7.2 05:15:09 10° N 05:18:22 32° WNW 05:21:36 10° SW visible
26 Jan 9.4 15:59:48 10° SW 16:02:26 20° W 16:05:07 10° NW visible
27 Jan 9.3 03:16:33 10° NE 03:19:17 20° E 03:22:01 10° SE visible
27 Jan 6.6 04:49:28 10° N 04:52:57 54° WNW 04:56:29 10° SSW visible
27 Jan 8.4 15:33:34 10° SSW 15:36:45 34° W 15:39:58 10° NNW visible
28 Jan 10.0 02:51:55 10° ENE 02:53:30 12° E 02:55:05 10° ESE visible
28 Jan 6.5 04:23:52 10° NNE 04:27:28 86° ESE 04:31:06 10° SSW visible
28 Jan 7.1 15:07:43 10° S 15:11:07 62° WSW 15:14:35 10° NNW visible
29 Jan 7.6 03:58:24 10° NNE 04:01:54 48° E 04:05:26 10° S visible
29 Jan 7.7 05:32:11 10° N 05:35:06 24° WNW 05:38:04 10° WSW visible
29 Jan 9.8 16:17:26 10° WSW 16:19:28 15° W 16:21:31 10° NW visible
30 Jan 8.7 03:33:06 10° NNE 03:36:16 28° E 03:39:28 10° SSE visible
30 Jan 7.0 05:06:24 10° N 05:09:45 38° WNW 05:13:08 10° SW visible
30 Jan 9.1 15:50:50 10° SSW 15:53:42 24° W 15:56:37 10° NW visible
31 Jan 9.6 03:08:03 10° NE 03:10:33 17° E 03:13:04 10° SE visible
31 Jan 6.5 04:40:45 10° N 04:44:19 65° WNW 04:47:56 10° SSW visible
31 Jan 8.0 15:24:44 10° S 15:28:01 42° W 15:31:23 10° NNW visible
01 Feb 10.2 02:43:53 10° ENE 02:44:44 11° E 02:45:35 10° E visible
01 Feb 6.8 04:15:11 10° NNE 04:18:48 72° ESE 04:22:27 10° S visible
01 Feb 10.3 16:35:48 10° W 16:36:31 10° W 16:37:13 10° WNW visible
02 Feb 8.0 03:49:45 10° NNE 03:53:13 40° E 03:56:42 10° S visible
02 Feb 7.5 05:23:23 10° N 05:26:30 28° WNW 05:29:40 10° WSW visible
02 Feb 9.7 16:08:16 10° SW 16:10:42 18° W 16:13:08 10° NW visible
